Погода в Дашогузе

Поиск расширенной информации на нашем сайте:

Полезная информация:

Новости сайта



02.01.2020
Опубликован Долгосрочный прогноз погоды по городам России и ближнего зарубежья на январь 2020 года.
Карты: Прогноз на январь и февраль 2020 года, Сравнение прогнозируемой аномалии приземной температуры воздуха на январь 2020 года по разным моделям.




Погода в Дашогузе - сегодня

Время (UTC), дата Ветер
(°,м/с) 
Видим.   Явления Облачность Т
(°С)
Тd
(°С)
f(%) Тe
(°С)
Pmin
(гПа)
dP
(гПа)
Po
(мм)
O2
(г/м3)
Тmin Tmax R s Состояние
почвы
06 04.06.20 030 (СВ) 10 км    8/3 2000 м кучево-дожд., средняя 
[Cb cap|Ac As]
+37.6 +10.6 20 +40  1002.5  0.4  745  262  +25.6         
09 04.06.20 230 (ЮЗ) 10 км    8/3 2000 м кучево-дожд., средняя 
[Cb cap|Ac As]
+42.5 +6.2 11 +43  1002.2  -0.2  745  259           
12 04.06.20 300 (СЗ) 10 км    8/3 2000 м кучево-дожд., средняя 
[Cb cap|Ac As]
+41.6 +7.7 13 +42  1003.1  0.9  746  259           
15 04.06.20 280 (З) 10 км    5/0 средняя, верхняя 
[Ac lent|Ci fib]
+37.8 +10.2 19 +39  1003.5  0.3  746  262    +43.9       
18 04.06.20 290 (З) 10 км    5/0 верхняя 
[Ci fib]
+29.3 +11.1 32 +32  1005.4  1.6  747  270    +43.9       
21 04.06.20 320 (СЗ) 10 км    ясно 
+31.2 +11.1 29 +34  1005.2  -0.2  747  268           
00 05.06.20 320 (СЗ) 10 км    ясно 
+25.9 +10.4 38 +28  1006  0.7  747  273           
03 05.06.20 020 (С) 10 км    ясно 
+27.5 +12.2 39 +32  1007.4  1.5  749  272  +23.5        сухая 
06 05.06.20 020 (С) 10 км    ясно 
+36.3 +13.5 26 +43  1008.5  1.3  749  264  +23.5         
09 05.06.20 050 (СВ) 10 км    ясно 
+39.4 +9.7 17 +40  1007.9  -0.5  749  262           
12 05.06.20 060 (СВ) 10 км    ясно 
+40.5 +9.4 16 +41  1007.5  -0.4  749  261           
15 05.06.20 060 (СВ) 10 км    ясно 
+37.6 +8.8 17 +38  1007.9  0.3  749  264    +40.8       
18 05.06.20 090 (В) 10 км    ясно 
+31.1 +8.8 25 +31  1009.4  1.3  750  270    +40.8       
21 05.06.20 090 (В) 10 км    ясно 
+28.8 +7.3 26 +29  1009.1  -0.4  750  272           
00 06.06.20 110 (В) 10 км    8/3 1500 м кучево-дожд., средняя 
[Cb cap|Ac trans]
+24.8 +2.7 24 +25  1010.5  1.3  751  277           
03 06.06.20 120 (ЮВ) 10 км    8/0 средняя, верхняя 
[Ac trans|Ci fib]
+26.2 +3.4 23 +26  1012.4  752  276  +24.6        сухая 
06 06.06.20 060 (СВ) 10 км    8/3 1500 м кучево-дожд., средняя 
[Cb cap|Ac trans]
+30 +6.1 22 +30  1013.7  1.3  753  273  +24.6         
09 06.06.20 070 (В) 10 км    6/0 
+33.3 +3.4 15 +33    -1.3             
12 06.06.20 080 (В) 10 км    8/0 средняя 
[Ac trans]
+34.6 -0.5 11 +35  1010.6  -1.6  751  269           
15 06.06.20 080 (В) 10 км    10/0 средняя, верхняя 
[Ac trans|Ci fib]
+32.4 +5.3 18 +32  1010.1  -0.5  751  270    +35.5       
18 06.06.20 350 (С) 10 км    6/0 средняя 
[Ac trans]
+25.4 +6.4 30 +25  1011.2  0.8  751  276    +35.5       
21 06.06.20 060 (СВ) 10 км    10/3 2000 м кучево-дожд., средняя 
[Cb cap|Ac trans]
+24.3 +6.5 32 +24  1010.8  -0.4  751  277           
00 07.06.20 360 (С) 10 км    10/3 2000 м кучево-дожд., средняя 
[Cb cap|Ac trans]
+24.4 +8.1 35 +24  1012.9  2.1  752  277           
03 07.06.20 310 (СЗ) 10 км  слаб. ливневой дождь  10/3 1500 м кучево-дожд., средняя 
[Cb cap|As op]
+20.5 +4.3 34 +21  1013.7  0.7  753  282  +19.8    0.3     
06 07.06.20 100 (В) 10 км  слаб. ливневой дождь  10/5 1500 м кучево-дожд., средняя 
[Cb cap|As op]
+19.9 +15.3 75 +30  1014.7  0.9  754  280  +19.8    0.3     
Время (UTC), дата Ветер
(°,м/с) 
Видим.   Явления Облачность Т
(°С)
Тd
(°С)
f(%) Тe
(°С)
Pmin
(гПа)
dP
(гПа)
Po
(мм)
O2
(г/м3)
Тmin Tmax R s Состояние
почвы

Для получения пояснительной информации подведите курсор к названию столбца.

ПОГОДА в Дашогузе - архив

Всё, что Вы хотите узнать о погоде в Дашогузе - удобно и подробно!

Выберите нужную дату (начиная с 1 января 2019* года) и нажмите кнопку "Найти".
Будут отображены архивные сводки погоды по пункту Дашогуз, начиная с указанной даты.


Отображать данные в формате CSV (для использования в таблицах Excel)


Внимание! Наш архив погоды предназначен исключительно для личного некоммерческого использования в познавательных целях. Если Вам необходимы официальные справки о состоянии погоды (для производственных, юридических, коммерческих и т.п. целей), обращайтесь в органы Росгидромета.

*Примечание: данная дата относится к архиву по метеостанциям СССР (Россия, СНГ, Балтия).
Архив по метеостанциям Зарубежной Европы и Азии (кроме Китая) хранится 10 дней, по другим регионам земного шара (Китай, Африка, Америка, Австралия, Океания) - 1 день.

Дашогуз - район местоположения метеостанции


Название, широта, долгота, высота метеостанции:
Дашогуз (Ташауз) 41.8°ш. 59.8°д. 82 м над ур. моря [Туркменистан]

Дополнительная информация

В oтличие oт бoльшинства пoгoдных сайтoв мы публикуем пoдрoбную метеoинфoрмацию в детальнoм прoфессиoнальнoм фoрмате.

Характеристики температуры и влажнoсти вoздуха измеряются на высoте 2 м в тени вдали oт зданий и деревьев.
Скoрoсть ветра измеряется на высoте 10 м (на урoвне рoста челoвека скoрoсть ветра ниже в 1.5-2 раза). Если метеoстанция нахoдится в гoрoде или в лесу, тo скoрoсть ветра занижена на 2-4 м/с пo сравнению с oткрытым местoм. Скoрoсть ветра над акватoриями крупных рек и oзёр, а также на вершинах хoлмoв на 2-5 м/с выше, чем в oбычных услoвиях.
Атмoсфернoе давление в разных тoчках местнoсти мoжет значительнo oтличаться oт давления на метеoстанции, в зависимoсти oт услoвий рельефа (при пoдъёме на 10 м давление пoнижается примернo на 1 мм рт.ст.).